Location: Eldred Sherwood Park Lake Dam
(42.9416°N, 93.5655°W)
Time: 20:11:18
(UTC+00:00)

Transit 4A - Pass Details

Date: 18 November 2024
Orbit: 862 x 980 km, 66.8° (Epoch: 02 December)

Event Time Altitude Azimuth Distance (km) Brightness Sun altitude
Rises 01:54:13 0° 334° (NNW) 3,662 11.4 -33.8°
Reaches altitude 10° 01:57:13 10° 346° (NNW) 2,724 10.5 -34.4°
Enters shadow 01:58:34 15° 355° (N) 2,354 10.1 -34.6°
